Regional Weather Roundup
Issued by NWS Cleveland, OH

Home | Current Version | Previous Version | Graphics & Text | Print | Product List | Glossary On
Versions: 1 2 3 4 5 6 7 8 9 10 11 12 13 14 15 16 17 18 19 20 21 22 23 24 25 26 27 28 29 30 31 32 33 34 35 36 37 38 39 40 41 42 43 44 45 46 47 48 49 50
873
ASUS41 KCLE 190600
RWRCLE
OHIO REGIONAL WEATHER ROUNDUP
NATIONAL WEATHER SERVICE WILMINGTON, OH
100 AM EST FRI JAN 19 2018

NOTE: "FAIR" INDICATES FEW OR NO CLOUDS BELOW 12,000 FEET WITH NO
SIGNIFICANT WEATHER AND/OR OBSTRUCTIONS TO VISIBILITY.

OHZ001>008-015>018-024>027-034-035-043-044-190700-
   NORTHWEST OHIO

CITY           SKY/WX    TMP DP  RH WIND       PRES   REMARKS
DEFIANCE       FAIR      25  13  60 SW12      30.04S WCI  14
FINDLAY        FAIR      26  12  55 SW17      30.04F WCI  13
TOLEDO EXPRESS FAIR      25  15  66 SW16G29   30.01S WCI  12
TOLEDO EXEC    FAIR      24  14  65 SW14      30.03S WCI  12
LIMA           FAIR      24  12  60 SW15      30.05F WCI  11
$$

OHZ009>014-019>023-028>033-038-089-190700-
   NORTHEAST OHIO

CITY           SKY/WX    TMP DP  RH WIND       PRES   REMARKS
CLE-HOPKINS    FAIR      29  13  51 SW13      30.05F WCI  19
CLE-LAKEFRONT  FAIR      28  13  53 S15       30.02F WCI  16
CUY CO. ARPT   NOT AVBL
LORAIN-ELYRIA  FAIR      25  10  53 SW17      30.03F WCI  12
ASHTABULA      FAIR      25  12  58 SW13      30.00S WCI  14
AKRON-CANTON   FAIR      23  10  57 SW16      30.05F WCI  10
WOOSTER        NOT AVBL
MANSFIELD      FAIR      23  11  60 SW18G25   30.04F WCI   9
YOUNGSTOWN     FAIR      24  11  57 SW15      30.02F WCI  11
$$

OHZ042-051>053-060>062-070>072-077>081-190700-
  SOUTHWEST OHIO

CITY           SKY/WX    TMP DP  RH WIND       PRES   REMARKS
CINC-COVINGTON FAIR      23  13  65 SW8       30.18F WCI  14
CINC-LUNKEN    FAIR      24  13  62 S7        30.23F WCI  16
HAMILTON       FAIR      24  13  62 SW7       30.19F WCI  16
DAYTON         NOT AVBL
WRIGHT-PAT AFB FAIR      23   6  48 S15       30.13F WCI  10
DAYTON GENERAL FAIR      23  12  62 SW10      30.14F WCI  12
WILMINGTON     FAIR      19  12  74 SW16      30.15F WCI   4
$$

OHZ036-037-039>041-045>050-054>059-063>069-073>076-082>088-190700-
  CENTRAL AND SOUTHEAST OHIO

CITY           SKY/WX    TMP DP  RH WIND       PRES   REMARKS
COLUMBUS       FAIR      21  11  65 S8        30.15F WCI  11
OSU AIRPORT    FAIR      20  12  71 S10       30.13F WCI   9
BOLTON FIELD   FAIR      20  11  69 SW16      30.14F WCI   6
RICKENBACK AFB NOT AVBL
NEWARK         FAIR      20   9  62 SW8       30.13F WCI  10
MARION         FAIR      20  11  68 S14       30.08F WCI   7
LANCASTER      FAIR      22  10  60 S10       30.15F WCI  11
ZANESVILLE     FAIR      22   9  57 S7        30.15F WCI  13
NEW PHILLY     FAIR      24  10  55 S6        30.12F WCI  17
$$




USA.gov is the U.S. government's official web portal to all federal, state and local government web resources and services.